Location: Unspecified
(40.7945°N, 0.0000°E)
Time: 02:27:25
(UTC+00:00)

Altair - Pass Details

Date: 28 January 2021
Orbit: 1501 x 1682 km, 47.2° (Epoch: 01 March)

Event Time Altitude Azimuth Distance (km) Brightness Sun altitude
Rises 01:15:38 0° 178° (S) 4,770 - -63.7°
Reaches altitude 10° 01:20:09 10° 159° (SSE) 3,824 - -63.2°
Maximum altitude 01:25:50 17° 123° (ESE) 3,325 - -62.5°
Drops below altitude 10° 01:31:36 10° 87° (E) 3,909 - -61.8°
Exits shadow 01:31:44 10° 86° (E) 3,931 9.8 -61.8°
Sets 01:36:15 0° 69° (ENE) 4,922 10.5 -61.2°
